EW0997 Weather Reports


time (UTC)temp
F
wind
direction
speed
knots
gust
knots
rain 1hr
in
rain 24hr
in
rain mn
in
humidity
%
barometer
mb
20260506044205 51 12 5.2 10.4 0.00 0.00 0.00 84 1008.2
20260506043704 51 10 6.1 11.3 0.00 0.00 0.00 84 1008.2
20260506043205 51 16 6.1 11.3 0.00 0.00 0.00 84 1008.2
20260506041205 51 13 4.3 7.8 0.00 0.00 0.00 84 1008.3
20260506040705 51 22 7.0 10.4 0.00 0.00 0.00 84 1008.3
20260506040205 51 13 4.3 10.4 0.00 0.00 0.00 84 1008.4
20260506035705 51 25 5.2 8.7 0.00 0.00 0.00 85 1008.4
20260506035205 51 10 4.3 12.2 0.00 0.00 0.00 85 1008.3
20260506034704 51 17 7.8 10.4 0.00 0.00 0.00 85 1008.4
20260506034205 50 10 2.6 8.7 0.00 0.00 0.00 86 1008.4
20260506033705 50 12 4.3 7.0 0.00 0.00 0.00 86 1008.4
20260506032705 50 15 4.3 7.8 0.00 0.00 0.00 85 1008.5
20260506032205 50 17 2.6 4.3 0.00 0.00 0.00 85 1008.5
20260506031705 50 20 5.2 10.4 0.00 0.00 0.00 85 1008.5
20260506031205 50 14 2.6 7.0 0.00 0.00 0.00 85 1008.5
20260506030705 50 18 4.3 8.7 0.00 0.00 0.00 84 1008.6
20260506030205 51 11 3.5 7.8 0.00 0.00 0.00 84 1008.6
20260506025705 51 12 2.6 6.1 0.00 0.00 0.00 84 1008.7
20260506025204 50 12 4.3 7.8 0.00 0.00 0.00 84 1008.7
20260506024705 50 14 4.3 7.0 0.00 0.00 0.00 84 1008.7
20260506024204 50 10 2.6 7.0 0.00 0.00 0.00 84 1008.7
20260506023705 50 15 5.2 8.7 0.00 0.00 0.00 84 1008.7
20260506023205 50 6 4.3 7.8 0.00 0.00 0.00 84 1008.7
20260506022704 50 4 5.2 8.7 0.00 0.00 0.00 84 1008.8
20260506022204 50 13 5.2 7.8 0.00 0.00 0.00 84 1008.8
20260506021704 50 15 5.2 10.4 0.00 0.00 0.00 84 1008.7
20260506021204 50 10 3.5 7.8 0.00 0.00 0.00 84 1008.8
20260506020704 50 3 4.3 7.0 0.00 0.00 0.00 84 1008.8
20260506020205 50 17 4.3 7.8 0.00 0.00 0.00 84 1008.8
20260506015705 50 8 5.2 10.4 0.00 0.00 0.00 84 1008.8
20260506015205 50 353 5.2 10.4 0.00 0.00 0.00 84 1008.8
20260506014704 50 10 3.5 8.7 0.00 0.00 0.00 84 1008.8
20260506014205 50 356 3.5 8.7 0.00 0.00 0.00 84 1008.8
20260506013704 50 350 3.5 7.0 0.00 0.00 0.00 84 1008.9
20260506013205 50 8 4.3 7.0 0.00 0.00 0.00 83 1008.9
20260506012705 50 357 4.3 7.8 0.00 0.00 0.00 84 1008.9
20260506012204 50 356 3.5 7.8 0.00 0.00 0.00 83 1008.9
20260506011705 50 12 4.3 7.0 0.00 0.00 0.00 84 1008.9
20260506011205 50 8 4.3 7.8 0.00 0.00 0.00 83 1008.9
20260506010704 50 19 5.2 8.7 0.00 0.00 0.00 83 1009.0
20260506010204 50 9 4.3 7.8 0.00 0.00 0.00 84 1009.1
20260506005205 50 24 5.2 10.4 0.00 0.00 0.00 84 1009.1
20260506003704 50 18 4.3 7.0 0.00 0.00 0.00 84 1009.2
20260506003205 50 23 4.3 8.7 0.00 0.00 0.00 84 1009.3
20260506002704 50 13 4.3 10.4 0.00 0.00 0.00 84 1009.3
20260506001705 50 23 7.0 11.3 0.00 0.00 0.00 83 1009.4
20260506001205 50 17 5.2 10.4 0.00 0.00 0.00 84 1009.5
20260506000704 50 15 6.1 12.2 0.00 0.00 0.00 84 1009.5
20260506000205 50 0 5.2 10.4 0.00 0.00 0.00 84 1009.5
20260505235705 50 19 4.3 8.7 0.00 0.00 0.00 83 1009.5
20260505235204 50 10 4.3 7.8 0.00 0.00 0.00 83 1009.5
20260505234704 50 19 5.2 8.7 0.00 0.00 0.00 83 1009.5
20260505234204 50 14 4.3 7.8 0.00 0.00 0.00 83 1009.6
20260505233705 50 11 5.2 11.3 0.00 0.00 0.00 84 1009.6
20260505233205 49 2 3.5 8.7 0.00 0.00 0.00 83 1009.7
20260505232704 49 8 4.3 8.7 0.00 0.00 0.00 83 1009.7
20260505232205 49 14 4.3 8.7 0.00 0.00 0.00 83 1009.8
20260505231704 49 8 4.3 7.0 0.00 0.00 0.00 83 1009.8
20260505231204 49 11 2.6 7.0 0.00 0.00 0.00 83 1009.9
20260505230704 49 23 5.2 8.7 0.00 0.00 0.00 83 1009.9
20260505230204 49 19 4.3 6.1 0.00 0.00 0.00 83 1009.9
20260505225704 49 25 4.3 6.1 0.00 0.00 0.00 83 1009.9
20260505224705 49 0 5.2 7.8 0.00 0.00 0.00 82 1009.9
20260505224204 49 14 4.3 8.7 0.00 0.00 0.00 82 1009.9
20260505223704 49 28 3.5 7.8 0.00 0.00 0.00 81 1009.9
20260505223204 49 17 3.5 7.8 0.00 0.00 0.00 81 1010.0
20260505222706 50 21 4.3 8.7 0.00 0.00 0.00 81 1009.9
20260505222205 50 10 4.3 8.7 0.00 0.00 0.00 80 1010.0
20260505221704 50 11 5.2 8.7 0.00 0.00 0.00 80 1010.0
20260505221205 50 15 4.3 10.4 0.00 0.00 0.00 79 1010.1
20260505220204 51 11 4.3 8.7 0.00 0.00 0.00 78 1010.1
20260505215704 51 17 5.2 10.4 0.00 0.00 0.00 78 1010.1
20260505215204 51 17 6.1 10.4 0.00 0.00 0.00 78 1010.2
20260505214704 51 16 5.2 12.2 0.00 0.00 0.00 77 1010.1
20260505213204 51 15 5.2 7.8 0.00 0.00 0.00 77 1010.3
20260505212704 51 21 7.8 10.4 0.00 0.00 0.00 77 1010.3
20260505212204 51 15 5.2 8.7 0.00 0.00 0.00 78 1010.3
20260505211704 51 25 7.8 11.3 0.00 0.00 0.00 77 1010.3
20260505211203 51 17 4.3 10.4 0.00 0.00 0.00 77 1010.3
20260505210704 51 23 6.1 8.7 0.00 0.00 0.00 77 1010.3
20260505210204 51 8 3.5 8.7 0.00 0.00 0.00 77 1010.4
20260505205204 51 19 6.1 10.4 0.00 0.00 0.00 77 1010.4
20260505204703 51 15 4.3 11.3 0.00 0.00 0.00 76 1010.4
20260505204203 51 20 6.1 10.4 0.00 0.00 0.00 77 1010.5
20260505203704 51 5 5.2 10.4 0.00 0.00 0.00 77 1010.5
20260505203204 51 17 4.3 10.4 0.00 0.00 0.00 77 1010.5
20260505202704 51 17 5.2 7.8 0.00 0.00 0.00 78 1010.5
20260505202202 51 30 5.2 10.4 0.00 0.00 0.00 77 1010.4
20260505201702 51 17 5.2 10.4 0.00 0.00 0.00 77 1010.4
20260505201202 51 8 6.1 8.7 0.00 0.00 0.00 78 1010.4
20260505200702 51 19 6.1 10.4 0.00 0.00 0.00 78 1010.4
20260505200201 51 15 5.2 10.4 0.00 0.00 0.00 78 1010.4
20260505195202 51 13 2.6 4.3 0.00 0.00 0.00 80 1010.3
20260505194702 51 21 4.3 7.8 0.00 0.00 0.00 80 1010.3
20260505194203 51 19 4.3 7.8 0.00 0.00 0.00 80 1010.2
20260505193702 51 14 6.1 10.4 0.00 0.00 0.00 80 1010.1
20260505193202 52 13 3.5 6.1 0.00 0.00 0.00 80 1010.1
20260505192213 52 18 5.2 10.4 0.00 0.00 0.00 79 1010.0
20260505191714 52 10 5.2 10.4 0.00 0.00 0.00 79 1010.0
20260505191214 52 17 7.0 11.3 0.00 0.00 0.00 78 1009.8
20260505190713 53 11 6.1 11.3 0.00 0.00 0.00 78 1009.8
20260505190214 53 8 6.1 12.2 0.00 0.00 0.00 78 1009.7
20260505185714 53 14 5.2 13.0 0.00 0.00 0.00 77 1009.8
20260505185214 53 10 6.1 10.4 0.00 0.00 0.00 77 1009.8
20260505184714 53 16 7.8 11.3 0.00 0.00 0.00 77 1009.7
20260505184214 54 16 6.1 11.3 0.00 0.00 0.00 78 1009.7
20260505183714 54 16 4.3 7.0 0.00 0.00 0.00 78 1009.6
20260505183213 54 28 4.3 10.4 0.00 0.00 0.00 77 1009.6
20260505182714 54 13 5.2 10.4 0.00 0.00 0.00 77 1009.6
20260505182214 54 23 5.2 11.3 0.00 0.00 0.00 77 1009.6
20260505181214 54 28 5.2 8.7 0.00 0.00 0.00 77 1009.6
20260505180213 54 14 4.3 10.4 0.00 0.00 0.00 77 1009.7
20260505175213 54 15 5.2 13.0 0.00 0.00 0.00 76 1009.7
20260505174713 55 14 5.2 11.3 0.00 0.00 0.00 75 1009.6
20260505174214 55 34 5.2 11.3 0.00 0.00 0.00 75 1009.6
20260505173714 55 16 5.2 11.3 0.00 0.00 0.00 75 1009.6
20260505173213 55 15 5.2 12.2 0.00 0.00 0.00 75 1009.6
20260505172714 55 66 6.1 12.2 0.00 0.00 0.00 76 1009.7
20260505172215 56 20 4.3 10.4 0.00 0.00 0.00 75 1009.8
20260505171715 56 38 4.3 10.4 0.00 0.00 0.00 75 1009.7
20260505171213 56 57 5.2 10.4 0.00 0.00 0.00 75 1009.8
20260505170714 56 22 6.1 12.2 0.00 0.00 0.00 74 1009.8
20260505170213 56 17 6.1 12.2 0.00 0.00 0.00 73 1009.7
20260505165714 56 7 6.1 12.2 0.00 0.00 0.00 71 1009.8
20260505165214 57 25 4.3 10.4 0.00 0.00 0.00 72 1009.7
20260505163713 58 40 4.3 11.3 0.00 0.00 0.00 71 1009.8
20260505163213 58 8 4.3 8.7 0.00 0.00 0.00 70 1009.8
20260505162713 58 13 7.0 12.2 0.00 0.00 0.00 68 1009.9
20260505162214 58 44 5.2 10.4 0.00 0.00 0.00 69 1009.8
20260505161713 58 42 6.1 10.4 0.00 0.00 0.00 67 1009.8
20260505161213 59 21 6.1 10.4 0.00 0.00 0.00 67 1009.8
20260505160713 59 46 5.2 10.4 0.00 0.00 0.00 68 1009.8
20260505153213 58 34 4.3 8.7 0.00 0.00 0.00 68 1009.9
20260505152214 58 20 6.1 11.3 0.00 0.00 0.00 68 1009.9
20260505151714 58 12 5.2 10.4 0.00 0.00 0.00 67 1010.0
20260505151213 58 11 7.0 11.3 0.00 0.00 0.00 66 1010.0
20260505150713 58 16 7.0 11.3 0.00 0.00 0.00 66 1010.0
20260505150213 58 46 7.8 13.0 0.00 0.00 0.00 66 1010.0
20260505130212 58 84 5.2 12.2 0.00 0.00 0.00 70 1010.6
20260505124213 59 69 5.2 11.3 0.00 0.00 0.00 70 1010.6
20260505123713 59 63 5.2 11.3 0.00 0.00 0.00 71 1010.7
20260505123213 58 81 5.2 13.9 0.00 0.00 0.00 72 1010.7
20260505122713 58 77 5.2 13.9 0.00 0.00 0.00 72 1010.7
20260505122213 59 74 6.1 11.3 0.00 0.00 0.00 70 1010.6
20260505121713 59 47 4.3 11.3 0.00 0.00 0.00 71 1010.6
20260505121213 59 37 5.2 10.4 0.00 0.00 0.00 70 1010.6
20260505120213 59 70 6.1 10.4 0.00 0.00 0.00 70 1010.7
20260505115713 59 26 5.2 12.2 0.00 0.00 0.00 70 1010.7
20260505115213 59 74 5.2 12.2 0.00 0.00 0.00 69 1010.8
20260505114712 60 12 6.1 12.2 0.00 0.00 0.00 69 1010.8
20260505114213 59 60 5.2 12.2 0.00 0.00 0.00 70 1010.9
20260505113213 60 11 5.2 17.4 0.00 0.00 0.00 68 1011.0
20260505112712 61 41 5.2 10.4 0.00 0.00 0.00 69 1011.1
20260505112212 60 48 4.3 10.4 0.00 0.00 0.00 71 1011.1
20260505111213 59 51 6.1 12.2 0.00 0.00 0.00 70 1011.1
20260505110712 59 61 6.1 13.9 0.00 0.00 0.00 70 1011.1
20260505102212 59 45 5.2 10.4 0.00 0.00 0.00 71 1011.4
20260505101712 59 18 7.0 12.2 0.00 0.00 0.00 73 1011.5
20260505101213 58 9 5.2 12.2 0.00 0.00 0.00 72 1011.5
20260505100713 58 19 7.0 13.0 0.00 0.00 0.00 72 1011.5
20260505100213 58 17 6.1 10.4 0.00 0.00 0.00 75 1011.5
20260505095712 57 54 4.3 8.7 0.00 0.00 0.00 76 1011.5
20260505095213 57 14 5.2 10.4 0.00 0.00 0.00 76 1011.6
20260505094714 57 65 3.5 10.4 0.00 0.00 0.00 74 1011.5
20260505094212 57 71 5.2 15.6 0.00 0.00 0.00 73 1011.5
20260505093712 58 75 4.3 15.6 0.00 0.00 0.00 73 1011.5
20260505093212 58 65 6.1 13.9 0.00 0.00 0.00 75 1011.5
20260505092713 57 53 4.3 10.4 0.00 0.00 0.00 79 1011.6
20260505092212 55 29 5.2 10.4 0.00 0.00 0.00 79 1011.5
20260505091713 55 22 6.1 10.4 0.00 0.00 0.00 79 1011.5
20260505091214 55 45 4.3 10.4 0.00 0.00 0.00 82 1011.5
20260505090712 55 68 3.5 7.8 0.00 0.00 0.00 82 1011.5
20260505085712 54 68 3.5 10.4 0.00 0.00 0.00 83 1011.4
20260505085212 54 75 1.7 7.8 0.00 0.00 0.00 85 1011.5
20260505084712 54 67 2.6 8.7 0.00 0.00 0.00 85 1011.5
20260505084213 54 52 2.6 7.8 0.00 0.00 0.00 85 1011.5
20260505083712 53 55 3.5 7.8 0.00 0.00 0.00 85 1011.5
20260505083212 54 80 2.6 6.1 0.00 0.00 0.00 85 1011.5
20260505082712 54 42 2.6 8.7 0.00 0.00 0.00 86 1011.4
20260505082212 54 73 2.6 8.7 0.00 0.00 0.00 86 1011.3
20260505081712 53 13 5.2 10.4 0.00 0.00 0.00 85 1011.3
20260505081212 53 27 4.3 8.7 0.00 0.00 0.00 85 1011.3
20260505080712 53 42 4.3 10.4 0.00 0.00 0.00 85 1011.3
20260505080212 53 27 5.2 10.4 0.00 0.00 0.00 84 1011.3
20260505075712 53 25 5.2 12.2 0.00 0.00 0.00 85 1011.4
20260505075213 53 36 6.1 13.0 0.00 0.00 0.00 84 1011.4
20260505074212 53 23 5.2 8.7 0.00 0.00 0.00 85 1011.5
20260505073712 53 24 5.2 10.4 0.00 0.00 0.00 85 1011.5
20260505073212 52 17 5.2 11.3 0.00 0.00 0.00 85 1011.5
20260505072212 52 24 7.0 11.3 0.00 0.00 0.00 86 1011.6
20260505071712 52 52 3.5 10.4 0.00 0.00 0.00 87 1011.7
20260505071212 52 17 2.6 7.0 0.00 0.00 0.00 87 1011.6
20260505070212 52 6 7.0 10.4 0.00 0.00 0.00 86 1011.7
20260505065712 52 17 5.2 8.7 0.00 0.00 0.00 87 1011.8
20260505064212 51 39 4.3 7.0 0.00 0.00 0.00 87 1011.9
20260505063712 51 10 6.1 10.4 0.00 0.00 0.00 87 1012.0
20260505062712 51 15 5.2 10.4 0.00 0.00 0.00 87 1011.9
20260505062212 51 19 5.2 10.4 0.00 0.00 0.00 87 1012.1
20260505061712 51 25 5.2 8.7 0.00 0.00 0.00 87 1012.1
20260505061212 51 11 4.3 8.7 0.00 0.00 0.00 87 1012.1
20260505060712 51 14 5.2 10.4 0.00 0.00 0.00 87 1012.0
20260505060212 51 21 3.5 7.8 0.00 0.00 0.00 87 1012.0
20260505055712 51 19 4.3 7.8 0.00 0.00 0.00 88 1011.9
20260505055212 51 10 5.2 8.7 0.00 0.00 0.00 88 1011.9
20260505054713 51 7 5.2 8.7 0.00 0.00 0.00 88 1011.9
20260505054212 51 15 5.2 8.7 0.00 0.00 0.00 88 1011.9
20260505053712 51 5 5.2 8.7 0.00 0.00 0.00 88 1011.9
20260505052213 51 11 4.3 7.8 0.00 0.00 0.00 88 1011.8
20260505051711 51 22 5.2 10.4 0.00 0.00 0.00 88 1011.7
20260505051211 51 20 4.3 8.7 0.00 0.00 0.00 88 1011.7
20260505050211 51 19 4.3 7.0 0.00 0.00 0.00 88 1011.6